DW9493 Weather Reports


Display with metric or nautical units.
time (UTC)temp
F
wind
direction
speed
MPH
gust
MPH
rain 1hr
in
rain 24hr
in
rain mn
in
humidity
%
barometer
mb
20260905135440 63 318 1.0 7.0 0.00 0.00 0.00 45 1026.6
20260905134440 64 269 4.0 9.0 0.00 0.00 0.00 45 1026.5
20260905133439 64 319 6.0 12.0 0.00 0.00 0.00 44 1026.5
20260905132913 63 299 6.0 11.0 0.00 0.00 0.00 45 1026.4
20260905131438 61 312 2.0 8.0 0.00 0.00 0.00 47 1026.3
20260905130439 61 321 3.0 9.0 0.00 0.00 0.00 48 1026.3
20260905125900 58 314 0.0 1.0 0.00 0.00 0.00 52 1026.1
20260905124412 58 205 0.0 1.0 0.00 0.00 0.00 52 1026.0
20260905123409 58 238 0.0 2.0 0.00 0.00 0.00 53 1025.9
20260905122753 57 205 0.0 1.0 0.00 0.00 0.00 55 1025.9
20260905122420 58 229 0.0 1.0 0.00 0.00 0.00 54 1025.9
20260905120410 58 315 0.0 5.0 0.00 0.00 0.00 54 1025.8
20260905115341 58 208 0.0 1.0 0.00 0.00 0.00 54 1025.8
20260905114340 57 239 0.0 1.0 0.00 0.00 0.00 56 1025.8
20260905113340 58 207 1.0 7.0 0.00 0.00 0.00 54 1025.8
20260905112341 59 316 3.0 8.0 0.00 0.00 0.00 54 1025.8
20260905111341 58 242 0.0 2.0 0.00 0.00 0.00 56 1025.8
20260905110340 58 264 0.0 2.0 0.00 0.00 0.00 56 1025.6
20260905105801 58 248 0.0 2.0 0.00 0.00 0.00 57 1025.8
20260905104303 57 321 0.0 2.0 0.00 0.00 0.00 58 1025.6
20260905103248 56 248 0.0 3.0 0.00 0.00 0.00 59 1025.5
20260905102247 55 312 0.0 3.0 0.00 0.00 0.00 64 1025.5
20260905101246 54 300 0.0 2.0 0.00 0.00 0.00 65 1025.5
20260905100726 54 316 0.0 2.0 0.00 0.00 0.00 65 1025.6
20260905095246 55 203 0.0 1.0 0.00 0.00 0.00 61 1025.6
20260905094246 55 195 0.0 1.0 0.00 0.00 0.00 61 1025.5
20260905093246 56 321 0.0 2.0 0.00 0.00 0.00 59 1025.4
20260905092245 56 270 0.0 1.0 0.00 0.00 0.00 60 1025.5
20260905091216 55 262 0.0 1.0 0.00 0.00 0.00 61 1025.4
20260905090216 55 325 0.0 2.0 0.00 0.00 0.00 63 1025.4
20260905085216 55 311 0.0 2.0 0.00 0.00 0.00 61 1025.4
20260905084216 56 259 0.0 0.0 0.00 0.00 0.00 62 1025.4
20260905083216 56 253 0.0 0.0 0.00 0.00 0.00 62 1025.5
20260905082217 57 253 0.0 1.0 0.00 0.00 0.00 59 1025.5
20260905081158 57 253 0.0 1.0 0.00 0.00 0.00 59 1025.4
20260905080151 56 262 0.0 1.0 0.00 0.00 0.00 60 1025.4
20260905075630 56 259 0.0 0.0 0.00 0.00 0.00 63 1025.5
20260905074154 56 259 0.0 1.0 0.00 0.00 0.00 59 1025.5
20260905073147 56 271 0.0 1.0 0.00 0.00 0.00 60 1025.5
20260905072149 57 281 0.0 1.0 0.00 0.00 0.00 61 1025.5
20260905071148 58 281 0.0 0.0 0.00 0.00 0.00 55 1025.5
20260905070625 60 281 0.0 1.0 0.00 0.00 0.00 54 1025.5
20260905065118 59 262 0.0 1.0 0.00 0.00 0.00 55 1025.2
20260905064118 59 302 0.0 2.0 0.00 0.00 0.00 55 1025.2
20260905063118 60 218 0.0 1.0 0.00 0.00 0.00 54 1025.2
20260905062603 60 194 0.0 1.0 0.00 0.00 0.00 51 1025.4
20260905061118 60 260 0.0 1.0 0.00 0.00 0.00 51 1025.2
20260905060117 59 295 0.0 1.0 0.00 0.00 0.00 55 1025.2
20260905055114 60 295 0.0 0.0 0.00 0.00 0.00 53 1025.2
20260905054115 60 295 0.0 0.0 0.00 0.00 0.00 53 1025.2
20260905053114 61 295 0.0 0.0 0.00 0.00 0.00 52 1025.2
20260905052114 61 295 0.0 1.0 0.00 0.00 0.00 51 1025.1
20260905051114 61 242 0.0 1.0 0.00 0.00 0.00 52 1025.2
20260905050111 61 242 0.0 0.0 0.00 0.00 0.00 52 1025.2
20260905045110 63 242 0.0 0.0 0.00 0.00 0.00 48 1025.2
20260905044112 65 242 0.0 1.0 0.00 0.00 0.00 47 1025.1
20260905043059 65 302 0.0 2.0 0.00 0.00 0.00 45 1025.1
20260905042058 66 312 0.0 3.0 0.00 0.00 0.00 43 1025.1
20260905041059 68 330 0.0 1.0 0.00 0.00 0.00 42 1025.1
20260905040058 69 250 1.0 3.0 0.00 0.00 0.00 40 1025.1
20260905035543 69 248 1.0 4.0 0.00 0.00 0.00 40 1025.2
20260905034055 70 250 3.0 5.0 0.00 0.00 0.00 40 1025.1
20260905033054 71 236 4.0 8.0 0.00 0.00 0.00 40 1025.1
20260905032054 71 242 5.0 8.0 0.00 0.00 0.00 38 1025.0
20260905031054 72 270 3.0 5.0 0.00 0.00 0.00 35 1025.1
20260905030543 71 239 3.0 6.0 0.00 0.00 0.00 36 1025.1
20260905025050 70 250 1.0 4.0 0.00 0.00 0.00 37 1025.1
20260905024051 69 332 1.0 3.0 0.00 0.00 0.00 38 1025.0
20260905024006 69 255 1.0 4.0 0.00 0.00 0.00 38 1024.6
20260905022044 69 305 2.0 7.0 0.00 0.00 0.00 40 1024.5
20260905021044 68 312 1.0 4.0 0.00 0.00 0.00 40 1024.4
20260905020045 67 323 1.0 4.0 0.00 0.00 0.00 44 1024.4
20260905015043 67 321 0.0 2.0 0.00 0.00 0.00 44 1024.4
20260905014038 67 316 0.0 3.0 0.00 0.00 0.00 45 1024.2
20260905013036 67 322 1.0 3.0 0.00 0.00 0.00 45 1024.2
20260905012035 69 326 0.0 2.0 0.00 0.00 0.00 41 1024.2
20260905011034 71 172 0.0 1.0 0.00 0.00 0.00 39 1024.2
20260905010034 72 322 0.0 2.0 0.00 0.00 0.00 36 1024.2
20260905005033 74 320 0.0 3.0 0.00 0.00 0.00 32 1024.1
20260905004030 75 311 0.0 3.0 0.00 0.00 0.00 30 1024.1
20260905003029 76 1 0.0 1.0 0.00 0.00 0.00 28 1024.0
20260905002024 77 1 0.0 1.0 0.00 0.00 0.00 26 1024.1
20260905001503 77 314 1.0 5.0 0.00 0.00 0.00 26 1024.0
20260905000023 77 338 0.0 4.0 0.00 0.00 0.00 25 1024.0
20260904235019 77 321 0.0 2.0 0.00 0.00 0.00 25 1024.0
20260904234017 78 32 0.0 4.0 0.00 0.00 0.00 24 1023.9
20260904233015 78 57 0.0 4.0 0.00 0.00 0.00 24 1023.9
20260904232012 78 105 0.0 3.0 0.00 0.00 0.00 25 1023.9
20260904231449 78 32 2.0 9.0 0.00 0.00 0.00 25 1023.7
20260904230010 79 269 2.0 8.0 0.00 0.00 0.00 24 1023.6
20260904225923 79 101 0.0 3.0 0.00 0.00 0.00 24 1023.7
20260904224006 79 93 1.0 6.0 0.00 0.00 0.00 24 1023.7
20260904223006 80 300 0.0 3.0 0.00 0.00 0.00 22 1023.7
20260904222436 79 346 1.0 10.0 0.00 0.00 0.00 23 1023.7
20260904221004 79 4 2.0 8.0 0.00 0.00 0.00 23 1023.7
20260904220006 80 51 2.0 6.0 0.00 0.00 0.00 23 1023.9
20260904214959 80 50 2.0 9.0 0.00 0.00 0.00 23 1023.9
20260904214000 80 46 3.0 8.0 0.00 0.00 0.00 22 1023.7
20260904213000 81 316 2.0 11.0 0.00 0.00 0.00 21 1023.9
20260904211958 81 75 4.0 14.0 0.00 0.00 0.00 22 1023.9
20260904210958 81 109 2.0 7.0 0.00 0.00 0.00 21 1024.0
20260904205958 81 8 3.0 9.0 0.00 0.00 0.00 22 1024.0
20260904204950 80 75 6.0 19.0 0.00 0.00 0.00 22 1024.2
20260904203949 82 23 4.0 11.0 0.00 0.00 0.00 21 1024.2
20260904202949 83 79 3.0 11.0 0.00 0.00 0.00 21 1024.1
20260904201948 82 215 3.0 9.0 0.00 0.00 0.00 21 1024.2
20260904201906 82 136 3.0 10.0 0.00 0.00 0.00 22 1024.5
20260904195949 81 141 3.0 7.0 0.00 0.00 0.00 21 1024.4
20260904195427 83 36 2.0 9.0 0.00 0.00 0.00 21 1024.5
20260904193945 83 110 2.0 8.0 0.00 0.00 0.00 21 1024.5
20260904192944 80 58 2.0 6.0 0.00 0.00 0.00 21 1024.6
20260904191946 80 359 3.0 12.0 0.00 0.00 0.00 21 1024.7
20260904190921 80 110 4.0 14.0 0.00 0.00 0.00 21 1024.9
20260904185921 80 325 2.0 7.0 0.00 0.00 0.00 21 1024.9
20260904184921 80 99 2.0 9.0 0.00 0.00 0.00 21 1025.0
20260904183916 79 112 4.0 10.0 0.00 0.00 0.00 22 1025.0
20260904182916 79 120 4.0 11.0 0.00 0.00 0.00 22 1025.0
20260904181917 79 64 2.0 8.0 0.00 0.00 0.00 23 1025.0
20260904180914 78 148 4.0 10.0 0.00 0.00 0.00 23 1025.1
20260904175851 80 43 2.0 5.0 0.00 0.00 0.00 21 1025.1
20260904174851 81 108 0.0 5.0 0.00 0.00 0.00 20 1025.2
20260904174325 79 120 2.0 6.0 0.00 0.00 0.00 21 1025.4
20260904172838 80 267 1.0 5.0 0.00 0.00 0.00 23 1025.4
20260904171837 78 201 2.0 5.0 0.00 0.00 0.00 22 1025.2
20260904170835 78 338 1.0 4.0 0.00 0.00 0.00 22 1025.4
20260904165833 76 323 1.0 4.0 0.00 0.00 0.00 22 1025.4
20260904164830 77 74 1.0 5.0 0.00 0.00 0.00 22 1025.5
20260904163830 78 22 1.0 5.0 0.00 0.00 0.00 23 1025.5
20260904162832 77 132 1.0 5.0 0.00 0.00 0.00 24 1025.5
20260904161829 76 101 1.0 3.0 0.00 0.00 0.00 25 1025.5
20260904160826 75 206 2.0 5.0 0.00 0.00 0.00 26 1025.5
20260904160301 74 98 2.0 5.0 0.00 0.00 0.00 28 1025.5
20260904154827 75 103 1.0 6.0 0.00 0.00 0.00 27 1025.4
20260904153826 74 142 1.0 6.0 0.00 0.00 0.00 28 1025.2
20260904152826 74 58 0.0 2.0 0.00 0.00 0.00 29 1025.2
20260904151824 73 72 0.0 3.0 0.00 0.00 0.00 30 1025.1
20260904151314 71 137 0.0 3.0 0.00 0.00 0.00 31 1025.1
20260904145821 70 134 0.0 2.0 0.00 0.00 0.00 32 1025.1
20260904145300 68 104 1.0 4.0 0.00 0.00 0.00 35 1025.1
20260904143821 67 106 0.0 3.0 0.00 0.00 0.00 38 1025.1
20260904142820 67 25 0.0 4.0 0.00 0.00 0.00 40 1025.1
20260904141819 66 105 0.0 3.0 0.00 0.00 0.00 41 1025.0
20260904140819 68 65 0.0 1.0 0.00 0.00 0.00 43 1024.9
20260904135817 66 314 0.0 1.0 0.00 0.00 0.00 41 1024.7